Flag for Romania Weather past 2 weeks in Constanța, Romania

Now
74 °F

Overcast.


Feels Like: 75 °F
Forecast: 70 / 82 °F
Wind: 3 mph from East

Location: Constanta

Current Time: Aug 23, 2014 at 8:58:03 PM

Latest Report: Aug 23, 2014 at 8:00 PM


Visibility: 6 mi

Pressure: 30.01 "Hg

Humidity: 78%

Dew point: 66 °F

Location of ConstanțaLocation

Historic Weather in Constanța — Graph

°F

Constanța temperature yesterday

Maximum temperature yesterday: 78 °F (at 5:00 PM)
Minimum temperature yesterday: 69 °F (at 7:00 AM)
Average temperature yesterday: 74 °F

Past Weeks' High & Low Weather Summary

 TemperatureHumidityPressure
High89 °F (Aug 9, 2:00 PM)100% (Aug 17, 4:00 AM)30.08 "Hg (Aug 17, 4:00 AM)
Low63 °F (Aug 19, 7:00 AM)37% (Aug 19, 12:00 PM)29.76 "Hg (Aug 15, 7:00 PM)
Average77 °F70%29.92 "Hg
* Reported Aug 8 7:00 PM — Aug 23 7:00 PM, Constanța, Weather by CustomWeather, © 2014

Note: Actual official high and low records may vary slightly from our data, if they occured in-between our weather recording intervals... More about our weather records

Advertising

Constanța weather history for previous 24 hours

 ConditionsComfort  
Time TempWeatherWind HumidityBarometerVisibility
7:00 PM
Aug 23
74 °FOvercast.5 mph79%30.03 "Hg6 mi
6:00 PM75 °FOvercast.3 mph78%30.05 "Hg6 mi
5:00 PM76 °FPartly sunny.1 mph77%30.04 "Hg6 mi
4:00 PM76 °FOvercast.5 mph75%30.05 "Hg6 mi
3:00 PM80 °FScattered clouds.1 mph62%30.06 "Hg6 mi
2:00 PM79 °FScattered clouds.2 mph65%30.07 "Hg6 mi
1:00 PM79 °FScattered clouds.1 mph62%30.08 "Hg6 mi
12:00 PM76 °FPartly sunny.1 mph68%30.08 "Hg6 mi
11:00 AM76 °FPartly sunny.2 mph68%30.07 "Hg6 mi
10:00 AM75 °FPartly sunny.2 mph71%30.06 "Hg6 mi
9:00 AM74 °FPartly sunny.2 mph72%30.06 "Hg6 mi
8:00 AM74 °FScattered clouds.2 mph73%30.05 "Hg6 mi
7:00 AM73 °FPartly sunny.2 mph76%30.04 "Hg6 mi
6:00 AM73 °FPassing clouds.2 mph78%30.04 "Hg6 mi
5:00 AM73 °FPassing clouds.2 mph78%30.04 "Hg6 mi
4:00 AM74 °FPassing clouds.1 mph76%30.05 "Hg6 mi
3:00 AM74 °FClear.1 mph74%30.05 "Hg6 mi
2:00 AM74 °FClear.1 mph76%30.05 "Hg6 mi
1:00 AM74 °FClear.1 mph76%30.05 "Hg6 mi
12:00 AM73 °FPassing clouds.1 mph77%30.05 "Hg6 mi
11:00 PM
Aug 22
73 °FPassing clouds.1 mph75%30.05 "Hg6 mi
10:00 PM74 °FPassing clouds.2 mph74%30.05 "Hg6 mi
9:00 PM74 °FPassing clouds.1 mph76%30.04 "Hg6 mi
8:00 PM74 °FPassing clouds.1 mph76%30.03 "Hg6 mi
Weather by CustomWeather, © 2014

See weather overviewHow to use our weather pages